www.pogodaiklimat.ru

Погода и климат >> Архив погоды >> Бразилия >> Санта-Катарина >> Арарангуа


ПОГОДА в Арарангуе

  • Прогноз погоды в Арарангуе
  • Монитор погоды в Арарангуе

АРХИВ ПОГОДЫ в Арарангуе

Время (UTC), дата Ветер
(напр.,м/с)
 
Видим.   Явления Облачность Т
(С)
Тd
(С)
f
(%)
Тe
(С)
Тes
(С)
Комфортность P
(гПа)
Po
(гПа)
Тmin
(С)
Tmax
(С)
R
(мм)
R24
(мм)
S
(см)
13 16.09 СВ 2
{3}
н/о н/о +34.5 +17.7 37 +38 +38 очень
душно
1008.0 1007.8
14 16.09 С 1
{3}
н/о н/о +37.0 +18.3 33 +41 +41 опасность
перегрева
1008.1 1007.9
15 16.09 С 2
{3}
н/о н/о +37.6 +17.1 30 +40 +40 очень
душно
1007.5 1007.3
16 16.09 Ю 4
{6}
н/о н/о +27.6 +18.7 58 +33 +33 очень
душно
1008.1 1007.9
17 16.09 Ю 4
{6}
н/о н/о +27.5 +18.6 58 +32 +32 очень
душно
1007.9 1007.7
19 16.09 Ю 2
{7}
н/о н/о +25.0 +18.8 68 +30 +30 душно 1009.9 1009.7
20 16.09 Ю 2
{4}
н/о н/о +23.7 +18.8 74 +28 +28 душно 1010.8 1010.6
21 16.09 Ю 1
{2}
н/о н/о +23.3 +18.4 74 +29 +29 душно 1011.2 1011.0
22 16.09 ЮВ 1
{2}
н/о н/о +21.2 +17.8 81 +25 +25 комфорт 1012.3 1012.1
23 16.09 Ю 3
{5}
н/о н/о +19.9 +17.1 84 +23 +23 комфорт 1013.4 1013.2
00 17.09 Ю 3
{5}
н/о н/о +19.0 +17.0 88 +21 +21 комфорт 1014.3 1014.1
01 17.09 ЮЗ 3
{5}
н/о н/о +18.6 +16.6 88 +20 +20 1015.0 1014.8
02 17.09 ЮЗ 2
{5}
н/о н/о +18.5 +16.6 89 +20 +20 1015.1 1014.9
03 17.09 ЮЗ 1
{4}
н/о н/о +18.8 +16.7 88 +21 +21 комфорт 1014.7 1014.5
04 17.09 ЮЗ 1
{3}
н/о н/о +18.8 +16.7 88 +21 +21 комфорт 1014.2 1014.0
05 17.09 Ю 2
{3}
н/о н/о +18.7 +16.4 86 +20 +20 1014.4 1014.2
06 17.09 ЮЗ 2
{5}
н/о н/о +17.9 +16.1 89 +18 +18 1014.0 1013.8
07 17.09 ЮЗ 2
{4}
н/о н/о +17.8 +15.9 89 +19 +19 1013.2 1013.0
08 17.09 Ю 2
{3}
н/о н/о +17.3 +15.8 91 +18 +18 1013.2 1013.0
09 17.09 Ю 2
{3}
н/о н/о +17.4 +16.3 93 +18 +18 1015.8 1015.6 1
10 17.09 ЮЗ 2
{5}
н/о н/о +16.5 +15.2 92 +17 +17 1015.2 1015.0 3
11 17.09 ЮЗ 2
{4}
н/о н/о +16.4 +15.3 93 +17 +17 1016.1 1015.9 0.8
12 17.09 ЮЗ 2
{3}
н/о н/о +16.5 +15.4 93 +17 +17 1017.1 1016.9 1
13 17.09 ЮЗ 1
{3}
н/о н/о +16.7 +15.5 93 +18 +18 1015.1 1014.9 0.4
14 17.09 ЮЗ 2
{3}
н/о н/о +16.6 +15.3 92 +17 +17 1014.4 1014.2 0.6
15 17.09 З 1
{3}
н/о н/о +16.4 +15.2 93 +17 +17 1013.1 1012.9 1
16 17.09 З 2
{4}
н/о н/о +16.4 +15.5 94 +16 +16 1015.3 1015.1 1
17 17.09 З 2
{4}
н/о н/о +16.2 +16.2 100 +16 +16 1012.4 1012.2 3
18 17.09 З 1
{3}
н/о н/о +16.5 +16.5 100 +17 +17 1012.4 1012.2 0.4
19 17.09 ЮВ 2
{3}
н/о н/о +16.3 +16.3 100 +17 +17 1010.5 1010.3 2
20 17.09 ЮВ 1
{3}
н/о н/о +16.4 +16.3 99 +17 +17 1011.2 1011.0 0.4
21 17.09 Ю 1
{2}
н/о н/о +16.4 +16.3 99 +17 +17 1011.3 1011.1 2
22 17.09 Ю 1
{3}
н/о н/о +16.4 +16.4 100 +17 +17 1011.8 1011.6 1
23 17.09 ЮЗ 1
{2}
н/о н/о +16.4 +16.4 100 +18 +18 1011.1 1010.9
00 18.09 З 1
{2}
н/о н/о +16.3 +16.3 100 +17 +17 1011.6 1011.4
01 18.09 З 1
{2}
н/о н/о +16.2 +16.2 100 +17 +17 1010.5 1010.3 0.4
02 18.09 ЮЗ 2
{3}
н/о н/о +16.0 +16.0 100 +16 +16 1010.6 1010.4
03 18.09 ЮЗ 1
{2}
н/о н/о +16.0 +17 +17 1009.8 1009.6
04 18.09 ЮЗ 2
{3}
н/о н/о +16.3 +17 +17 1010.3 1010.1 0.6
05 18.09 СЗ 1
{3}
н/о н/о +16.1 +16.1 100 +17 +17 1008.2 1008.0 0.2
06 18.09 ЮЗ 1
{2}
н/о н/о +16.2 +16.2 100 +18 +18 1007.4 1007.2
07 18.09 З 1
{2}
н/о н/о +16.4 +16.4 100 +17 +17 1007.9 1007.7
08 18.09 ЮЗ 1
{2}
н/о н/о +16.3 +16.3 100 +17 +17 1007.2 1007.0 0.2
09 18.09 З 1
{2}
н/о н/о +16.5 +16.5 100 +17 +17 1009.5 1009.3 0.2
10 18.09 ЮЗ 2
{6}
н/о н/о +16.8 +17 +17 1010.8 1010.6 2
11 18.09 ЮЗ 1
{4}
н/о н/о +17.1 +17.1 100 +18 +18 1010.6 1010.4 0.6
12 18.09 Ю 2
{4}
н/о н/о +17.4 +17.2 99 +18 +18 1011.2 1011.0
13 18.09 Ю 2
{5}
н/о н/о +17.9 +17.1 95 +18 +18 1013.0 1012.8
14 18.09 Ю 2
{5}
н/о н/о +16.8 +16.3 97 +17 +17 1013.0 1012.8 1
15 18.09 Ю 2
{4}
н/о н/о +16.3 +15.6 96 +17 +17 1012.2 1012.0
16 18.09 Ю 2
{3}
н/о н/о +17.0 +15.9 93 +17 +17 1010.8 1010.6 0.2
17 18.09 Ю 2
{4}
н/о н/о +16.3 +15.4 94 +16 +16 1011.3 1011.1 1
18 18.09 В 1
{4}
н/о н/о +16.4 +15.8 96 +18 +18 1011.3 1011.1 0.8
19 18.09 В 1
{2}
н/о н/о +16.3 +15.8 97 +18 +18 1010.7 1010.5 0.2
20 18.09 ЮВ 1
{1}
н/о н/о +16.7 +16.3 97 +18 +18 1010.7 1010.5
21 18.09 Ю 1
{3}
н/о н/о +16.7 +15.5 93 +18 +18 1010.7 1010.5
22 18.09 В 1
{2}
н/о н/о +16.1 +14.9 93 +17 +17 1011.7 1011.5
23 18.09 С 1
{1}
н/о н/о +15.9 +15.2 96 +17 +17 1012.7 1012.5
00 19.09 СЗ 1
{1}
н/о н/о +16.2 +15.4 95 +18 +18 1013.2 1013.0
01 19.09 СЗ 1
{1}
н/о н/о +16.0 +15.7 98 +17 +17 1012.9 1012.7
02 19.09 СВ 1
{1}
н/о н/о +15.5 +15.2 98 +17 +17 1013.0 1012.8
03 19.09 З 1
{2}
н/о н/о +15.7 +15.0 96 +17 +17 1012.5 1012.3
04 19.09 СЗ 1
{1}
н/о н/о +15.4 +14.6 95 +17 +17 1012.3 1012.1
05 19.09
{1}
н/о н/о +15.3 +14.7 96 1011.8 1011.6
06 19.09 С 1
{1}
н/о н/о +15.4 +15.0 97 +17 +17 1010.9 1010.7
07 19.09 штиль 0
{1}
н/о н/о +15.3 +15.1 99 +15 +15 1010.5 1010.3
08 19.09 штиль 0
{1}
н/о н/о +15.1 +15.1 100 +15 +15 1010.7 1010.5
09 19.09 СВ 1
{1}
н/о н/о +15.2 +15.2 100 +16 +16 1010.6 1010.4
10 19.09 СВ 1
{1}
н/о н/о +16.5 +16.5 100 +18 +18 1010.8 1010.6
11 19.09 СВ 2
{2}
н/о н/о +17.0 +16.4 96 +18 +18 1010.6 1010.4
12 19.09 СВ 2
{3}
н/о н/о +17.7 +16.8 94 +18 +18 1010.5 1010.3
13 19.09 СВ 2
{3}
н/о н/о +18.5 +17.3 93 +20 +20 1009.9 1009.7
14 19.09 СВ 2
{3}
н/о н/о +20.4 +18.9 91 +25 +25 комфорт 1008.7 1008.5
15 19.09 В 2
{3}
н/о н/о +20.5 +18.9 91 +25 +25 комфорт 1007.4 1007.2
16 19.09 В 2
{3}
н/о н/о +21.8 +19.6 87 +27 +27 душно 1005.7 1005.5
17 19.09 Ю 1
{3}
н/о н/о +23.8 +20.8 83 +30 +30 очень
душно
1004.5 1004.3
18 19.09 ЮВ 1
{2}
н/о н/о +23.6 +21.2 86 +30 +30 очень
душно
1002.6 1002.4
19 19.09 Ю 1
{2}
н/о н/о +22.9 +20.9 89 +30 +30 очень
душно
1003.0 1002.8
20 19.09 З 1
{3}
н/о н/о +21.3 +20.4 95 +27 +27 душно 1004.6 1004.4 0.8
21 19.09 Ю 2
{3}
н/о н/о +20.2 +20 +20 1003.7 1003.5 4
22 19.09 Ю 1
{2}
н/о н/о +19.8 +20 +20 1005.1 1004.9
23 19.09 Ю 1
{3}
н/о н/о +19.2 +20 +20 1006.1 1005.9 2
00 20.09 Ю 2
{4}
н/о н/о +18.9 +19 +19 1007.0 1006.8 2
01 20.09 ЮЗ 2
{4}
н/о н/о +19.5 +19 +19 1008.4 1008.2 2
02 20.09 З 1
{3}
н/о н/о +19.1 +20 +20 1008.8 1008.6 0.2
03 20.09 СЗ 1
{1}
н/о н/о +19.1 +20 +20 1009.5 1009.3
04 20.09 ЮВ 1
{1}
н/о н/о +18.8 +20 +20 1009.4 1009.2
05 20.09 Ю 1
{2}
н/о н/о +19.7 +20 +20 1009.6 1009.4
06 20.09 З 1
{2}
н/о н/о +18.7 +16.2 85 +21 +21 комфорт 1009.8 1009.6
07 20.09 Ю 1
{2}
н/о н/о +18.0 +17.5 97 +19 +19 1010.5 1010.3
08 20.09 ЮЗ 2
{3}
н/о н/о +19.1 +15.9 82 +21 +21 комфорт 1011.4 1011.2
09 20.09 Ю 3
{4}
н/о н/о +18.3 +15.2 82 +19 +19 1012.4 1012.2
10 20.09 Ю 3
{6}
н/о н/о +16.8 +14.4 86 +17 +17 1013.9 1013.7
11 20.09 Ю 4
{6}
н/о н/о +17.1 +14.3 84 +17 +17 1014.4 1014.2
12 20.09 Ю 4
{7}
н/о н/о +17.0 +13.8 81 +17 +17 1016.3 1016.1
14 20.09 Ю 3
{5}
н/о н/о +17.8 +12.8 73 +18 +18 1017.4 1017.2
15 20.09 Ю 2
{5}
н/о н/о +18.9 +13.9 73 +20 +20 1017.5 1017.3
16 20.09 Ю 3
{6}
н/о н/о +17.7 +13.5 76 +18 +18 1017.6 1017.4
17 20.09 Ю 3
{6}
н/о н/о +17.6 +13.8 78 +18 +18 1017.5 1017.3
18 20.09 Ю 3
{5}
н/о н/о +17.5 +13.3 76 +18 +18 1018.1 1017.9
19 20.09 Ю 3
{5}
н/о н/о +17.1 +13.2 78 +17 +17 1018.6 1018.4
20 20.09 Ю 3
{5}
н/о н/о +16.7 +13.3 80 +17 +17 1019.3 1019.1
21 20.09 Ю 2
{5}
н/о н/о +15.9 +13.3 85 +16 +16 1019.9 1019.7
22 20.09 Ю 1
{3}
н/о н/о +15.4 +13.2 87 +16 +16 1020.8 1020.6
23 20.09 ЮЗ 1
{3}
н/о н/о +15.1 +13.1 88 +16 +16 1021.2 1021.0
00 21.09 З 1
{2}
н/о н/о +14.3 +12.7 90 +15 +15 1021.7 1021.5
01 21.09 З 1
{2}
н/о н/о +14.4 +12.8 90 +15 +15 1022.0 1021.8
02 21.09 ЮЗ 2
{3}
н/о н/о +14.0 +12.9 93 +14 +14 1022.0 1021.8
03 21.09 З 2
{3}
н/о н/о +14.0 +12.7 92 +14 +14 1022.0 1021.8
04 21.09 З 1
{2}
н/о н/о +14.1 +12.6 91 +14 +14 1021.7 1021.5
05 21.09 З 1
{2}
н/о н/о +14.2 +12.4 89 +14 +14 1021.6 1021.4
06 21.09 З 1
{2}
н/о н/о +13.8 +12.3 91 +14 +14 1021.3 1021.1
07 21.09 З 1
{2}
н/о н/о +14.1 +11.9 87 +14 +14 1021.5 1021.3
08 21.09 З 1
{2}
н/о н/о +14.2 +12.0 87 +15 +15 1022.2 1022.0
09 21.09 З 1
{1}
н/о н/о +14.3 +12.4 88 +15 +15 1022.8 1022.6
10 21.09 З 1
{1}
н/о н/о +14.5 +12.5 88 +16 +16 1023.5 1023.3
11 21.09 З 1
{2}
н/о н/о +15.0 +13.0 88 +16 +16 1023.9 1023.7
12 21.09 З 2
{2}
н/о н/о +15.8 +12.9 83 +16 +16 1023.7 1023.5
13 21.09 З 1
{2}
н/о н/о +16.2 +12.8 80 +17 +17 1023.8 1023.6
14 21.09 З 1
{2}
н/о н/о +16.7 +12.6 77 +18 +18 1023.6 1023.4
15 21.09 З 1
{2}
н/о н/о +17.4 +13.2 76 +19 +19 1023.0 1022.8
16 21.09 штиль 0
{2}
н/о н/о +17.9 +13.2 74 +18 +18 1022.4 1022.2
17 21.09 Ю 1
{2}
н/о н/о +17.5 +13.2 76 +19 +19 1021.7 1021.5
18 21.09 ЮВ 1
{2}
н/о н/о +17.3 +12.3 72 +18 +18 1021.4 1021.2
19 21.09 Ю 1
{2}
н/о н/о +17.2 +12.4 73 +18 +18 1021.5 1021.3
20 21.09 ЮВ 1
{2}
н/о н/о +16.9 +12.4 75 +18 +18 1022.1 1021.9
21 21.09 С 1
{2}
н/о н/о +16.6 +12.2 75 +18 +18 1022.6 1022.4
22 21.09 С 1
{1}
н/о н/о +16.1 +13.1 82 +17 +17 1022.8 1022.6
23 21.09 СЗ 1
{2}
н/о н/о +15.6 +13.5 87 +16 +16 1023.4 1023.2
00 22.09 СЗ 1
{2}
н/о н/о +15.4 +13.8 90 +17 +17 1024.0 1023.8
01 22.09 З 1
{2}
н/о н/о +15.3 +13.9 91 +16 +16 1024.3 1024.1
02 22.09 З 1
{2}
н/о н/о +15.2 +13.9 92 +16 +16 1024.3 1024.1
03 22.09 З 1
{2}
н/о н/о +15.1 +13.7 91 +16 +16 1024.1 1023.9
04 22.09 З 1
{2}
н/о н/о +14.9 +13.6 92 +16 +16 1023.4 1023.2
05 22.09 СЗ 1
{1}
н/о н/о +14.7 +13.7 94 +16 +16 1023.0 1022.8
06 22.09 ЮЗ 1
{1}
н/о н/о +14.1 +13.3 95 +15 +15 1022.9 1022.7
07 22.09 З 1
{1}
н/о н/о +13.0 +12.4 96 +14 +14 1023.3 1023.1
08 22.09 СЗ 1
{1}
н/о н/о +12.3 +12.0 98 +13 +13 1023.7 1023.5
09 22.09 З 1
{1}
н/о н/о +12.3 +12.3 100 +12 +12 1024.5 1024.3
10 22.09 З 1
{2}
н/о н/о +13.3 +13.3 100 +13 +13 1025.1 1024.9
11 22.09 З 1
{2}
н/о н/о +15.7 +14.3 91 +16 +16 1026.0 1025.8
12 22.09 З 2
{3}
н/о н/о +17.6 +12.3 71 +18 +18 1026.8 1026.6
13 22.09 ЮЗ 2
{4}
н/о н/о +19.8 +6.3 41 +21 +21 комфорт 1027.1 1026.9
14 22.09 Ю 2
{4}
н/о н/о +21.0 +6.3 38 +23 +23 комфорт 1027.3 1027.1
15 22.09 Ю 3
{5}
н/о н/о +21.7 +5.9 36 +22 +22 комфорт 1027.0 1026.8
16 22.09 Ю 3
{6}
н/о н/о +21.3 +6.7 39 +22 +22 комфорт 1027.1 1026.9
17 22.09 Ю 3
{6}
н/о н/о +20.8 +10.8 53 +23 +23 комфорт 1027.2 1027.0
18 22.09 Ю 4
{7}
н/о н/о +19.8 +12.2 62 +21 +21 комфорт 1027.6 1027.4
19 22.09 Ю 4
{7}
н/о н/о +18.2 +11.6 65 +18 +18 1028.5 1028.3
20 22.09 Ю 4
{7}
н/о н/о +17.2 +9.2 59 +17 +17 1029.4 1029.2
21 22.09 Ю 2
{6}
н/о н/о +15.8 +8.3 61 +16 +16 1030.0 1029.8
22 22.09 З 1
{4}
н/о н/о +14.4 +8.2 66 +16 +16 1030.6 1030.4
23 22.09 З 1
{2}
н/о н/о +13.8 +7.0 64 +14 +14 1031.0 1030.8
00 23.09 З 1
{2}
н/о н/о +12.0 +7.9 76 +13 +13 1031.4 1031.2
01 23.09 З 1
{1}
н/о н/о +10.5 +7.5 82 +11 +11 1031.5 1031.3
02 23.09 З 1
{1}
н/о н/о +10.0 +7.9 87 +10 +10 1031.5 1031.3
03 23.09 З 1
{1}
н/о н/о +9.2 +7.9 92 +9 +9 1031.1 1030.9
04 23.09 З 1
{2}
н/о н/о +10.0 +7.8 86 +10 +10 1030.5 1030.3
05 23.09 З 1
{2}
н/о н/о +9.3 +7.6 89 +10 +10 1030.2 1030.0
06 23.09 ЮЗ 1
{2}
н/о н/о +9.0 +7.7 92 +9 +9 1029.7 1029.5
07 23.09 СЗ 1
{1}
н/о н/о +8.8 +7.8 93 +9 +9 1029.9 1029.7
08 23.09 СЗ 1
{1}
н/о н/о +8.9 +7.9 93 +9 +9 1030.3 1030.1
09 23.09 СЗ 1
{2}
н/о н/о +9.6 +8.4 92 +9 +9 1030.7 1030.5
10 23.09 СЗ 1
{2}
н/о н/о +10.1 +8.4 89 +10 +10 1031.2 1031.0
11 23.09 СЗ 1
{2}
н/о н/о +12.6 +8.9 78 +13 +13 1031.6 1031.4
12 23.09 СЗ 1
{2}
н/о н/о +14.7 +9.7 72 +15 +15 1031.6 1031.4
13 23.09 С 1
{3}
н/о н/о +17.3 +8.8 57 +18 +18 1031.6 1031.4

 

Местоположение метеостанции Арарангуа (Санта-Катарина, Бразилия): широта -28.93 долгота -49.50 высота над уровнем моря 14 м.

В архиве по умолчанию представлена погода в Арарангуе за последнюю неделю. Архивные данные за месяц целиком и за предыдущие месяцы, начиная с января 2011 года, Вы можете получить, выбрав интересующий диапазон дат из раскрывающегося списка и нажав кнопку "Ввод!".


*Определитесь, кто Вы:
робот инопланетянин человек

Внимание! Время в таблицах - всемирное. Для получения местного времени необходимо прибавить поправку, которая равна -3 ч.

Смотрите также архив погоды в соседних городах и на ближайших метеорологических станциях:

Погода в Урусанге (Санта-Катарина, Бразилия) (48 км)
Погода в Торресе (Санта-Катарина, Бразилия) (50 км)
Погода в Торресе (Санта-Катарина, Бразилия) (52 км)
Погода в Сан-Хосе-дос-Аусенте (Риу-Гранди-ду-Сул, Бразилия) (58 км)
Погода в Санта-Марте (Санта-Катарина, Бразилия) (76 км)
Погода в Сан-Хоакиме (Санта-Катарина, Бразилия) (84 км)
Погода в Урубиси (Санта-Катарина, Бразилия) (89 км)
Погода в Бон-Жезусе (Риу-Гранди-ду-Сул, Бразилия) (95 км)
Погода в Трамандаи (Риу-Гранди-ду-Сул, Бразилия) (135 км)
Погода в Канеле (Риу-Гранди-ду-Сул, Бразилия) (138 км)

Пояснения к столбцам:

Ветер - указаны скорость ветра в м/с - средняя за 10 мин, порывы в срок и между сроками (в фигурных скобках) и направление, откуда дует ветер: С - северный, СВ - северо-восточный, В - восточный, ЮВ - юго-восточный, Ю - южный, ЮЗ - юго-западный, З - западный, СЗ - северо-западный.
Видимость - горизонтальная дальность видимости в метрах или километрах. При видимости от 1 до 10 км при отсутствии осадков обычно наблюдается дымка, при ухудшении видимости до 1 км и менее - туман. В сухую погоду видимость может ухудшаться дымом, пылью или мглою.
Явления - указаны атмосферные явления, наблюдавшиеся в срок или в последний час перед сроком; фигурными скобками обозначены явления, наблюдавшиеся между сроками (за 1-3 часа до срока); квадратными скобками обозначены град или гололедные отложения с указанием их диаметра в мм.
Облачность - указаны через наклонную черту общая и нижняя облачность в баллах и высота нижней границы облаков в метрах; квадратными скобками обозначены формы облаков: Ci - перистые, Cs - перисто-слоистые, Cc - перисто-кучевые, Ac - высококучевые, As - высокослоистые, Sc - слоисто-кучевые, Ns - слоисто-дождевые, Cu - кучевые, Cb - кучево-дождевые. Подробнее классификацию облаков см. в Атласе облаков (PDF).
T - Температура воздуха - температура, измеренная на высоте 2 м над землей.
Td - Температура точки росы - температура, при понижении до которой содержащийся в воздухе водяной пар достигнет насыщения.
f - Относительная влажность воздуха - влажноcть воздуха, измеренная на высоте 2 м над землей.
Te - Эффективная температура - температура, которую ощущает одетый по сезону человек в тени. Характеристика душности погоды. При расчете учитывается влияние влажности воздуха и скорости ветра на теплоощущения человека.
Tes - Эффективная температура на солнце - температура, которую ощущает человек, с поправкой на солнечный нагрев. Характеристика знойности погоды. Зависит от высоты солнца над горизонтом, облачности и скорости ветра. Ночью, в пасмурную погоду, а также при ветре 12 м/с и более поправка равна нулю.
P - Атмосферное давление - приведенное к уровню моря атмосферное давление.
Po - Атмосферное давление - измеренное на уровне метеостанции атмосферное давление.
Tmin - Минимальная температура - минимум температуры воздуха на высоте 2 м над землей.
Tmax - Максимальная температура - максимум температуры воздуха на высоте 2 м над землей.
R - Количество осадков - Количество выпавших осадков за период времени, мм. При наведении курсора мыши на число - период времени, за который выпало указанное количество осадков.
R24 - Количество осадков - Количество выпавших осадков за 24 часа, мм.
S - Снежный покров - Высота снежного покрова, см. При наведении курсора мыши на число - состояние снежного покрова и степень покрытия местности в баллах.